Change the Weather History Date:

Thursday, December 18, 2014

  Actual Average Record
Temperature  
Mean Temperature 76 °F 73 °F  
Max Temperature 82 °F 81 °F 89 °F (1971)
Min Temperature 70 °F 65 °F 52 °F (1983)
Degree Days  
Heating Degree Days 0 0  
Month to date heating degree days 0 0  
Since 1 July heating degree days 0 0  
Cooling Degree Days 11 8  
Month to date cooling degree days 163 159  
Year to date cooling degree days 4357 3866  
Growing Degree Days 24 (Base 50)    
Moisture  
Dew Point 66 °F    
Average Humidity 76    
Maximum Humidity 90    
Minimum Humidity 62    
Precipitation  
Precipitation T in 0.12 in 0.91 in (1982)
Month to date precipitation 0.28 1.93  
Year to date precipitation 18.53 16.41  
Snow  
Snow 0.00 in - - ()
Month to date snowfall 0.0  
Since 1 July snowfall 0.0  
Snow Depth 0.00 in    
Sea Level Pressure  
Sea Level Pressure 30.13 in    
Wind  
Wind Speed 15 mph (ENE)    
Max Wind Speed 29 mph    
Max Gust Speed 36 mph    
Visibility 10 miles    
Events Rain    
T = Trace of Precipitation, MM = Missing Value Source: NWS Daily Summary

Daily Weather History Graph

Daily Weather History Graph

Search for Another Location

Airport or City:

Trip Planner

Search our weather history database for the weather conditions in past years. The results will help you decide how hot, cold, wet, or windy it might be!

Date:

Astronomy

Dec. 18, 2014 Rise Set
Actual Time 6:56 AM HST 5:48 PM HST
Civil Twilight 6:32 AM HST 6:12 PM HST
Nautical Twilight 6:04 AM HST 6:40 PM HST
Astronomical Twilight 5:37 AM HST 7:07 PM HST
Moon 3:40 AM HST (12/18) 3:19 PM HST (12/18)
Length of Visible Light 11h 40m
Length of Day
10h 52m
Waning Crescent, 12% of the Moon is Illuminated
Dec 18
Waning Crescent
Dec 21
New
Dec 28
First Quarter
Jan 4
Full
Jan 12
Last Quarter

Hourly Weather History & Observations

Time (HST) Temp. Heat Index Dew Point Humidity Pressure Visibility Wind Dir Wind Speed Gust Speed Precip Events Conditions
12:54 AM 72.0 °F - 66.9 °F 84% 30.18 in 10.0 mi NE 13.8 mph 20.7 mph 0.00 in   Clear
1:54 AM 72.0 °F - 66.0 °F 81% 30.17 in 10.0 mi ENE 10.4 mph - N/A   Clear
2:54 AM 72.0 °F - 66.0 °F 81% 30.14 in 10.0 mi NE 12.7 mph 21.9 mph N/A   Clear
3:54 AM 72.0 °F - 66.0 °F 81% 30.15 in 10.0 mi ENE 10.4 mph 20.7 mph N/A   Clear
4:54 AM 72.0 °F - 64.9 °F 78% 30.15 in 10.0 mi NE 13.8 mph - N/A   Clear
5:54 AM 71.1 °F - 64.9 °F 81% 30.16 in 10.0 mi NE 13.8 mph - 0.00 in   Scattered Clouds
6:54 AM 71.1 °F - 64.0 °F 78% 30.17 in 10.0 mi SE 3.5 mph - N/A   Scattered Clouds
7:54 AM 73.0 °F - 66.0 °F 79% 30.18 in 10.0 mi Calm Calm - N/A   Scattered Clouds
8:54 AM 75.9 °F - 66.9 °F 74% 30.18 in 10.0 mi NE 17.3 mph 27.6 mph N/A   Scattered Clouds
9:54 AM 78.1 °F - 66.9 °F 68% 30.17 in 10.0 mi ENE 5.8 mph 19.6 mph N/A   Scattered Clouds
10:54 AM 80.1 °F 82.3 °F 66.9 °F 64% 30.16 in 10.0 mi ENE 18.4 mph 31.1 mph N/A   Scattered Clouds
11:54 AM 79.0 °F - 68.0 °F 69% 30.13 in 10.0 mi NE 23.0 mph 31.1 mph N/A   Scattered Clouds
12:54 PM 79.0 °F - 68.0 °F 69% 30.09 in 10.0 mi ENE 17.3 mph 32.2 mph N/A   Scattered Clouds
1:54 PM 81.0 °F 83.3 °F 66.9 °F 62% 30.05 in 10.0 mi ENE 19.6 mph 32.2 mph N/A   Scattered Clouds
2:54 PM 80.1 °F 82.1 °F 66.0 °F 62% 30.04 in 10.0 mi ENE 23.0 mph 34.5 mph N/A   Scattered Clouds
3:54 PM 78.1 °F - 66.9 °F 68% 30.05 in 10.0 mi ENE 20.7 mph 34.5 mph N/A   Scattered Clouds
4:54 PM 77.0 °F - 66.9 °F 71% 30.06 in 10.0 mi NE 19.6 mph 28.8 mph N/A   Scattered Clouds
5:54 PM 73.9 °F - 66.0 °F 76% 30.07 in 10.0 mi ENE 16.1 mph 26.5 mph N/A   Scattered Clouds
6:54 PM 73.0 °F - 66.0 °F 79% 30.10 in 10.0 mi ENE 20.7 mph 29.9 mph N/A   Scattered Clouds
7:54 PM 73.9 °F - 66.0 °F 76% 30.14 in 10.0 mi NE 15.0 mph - N/A   Mostly Cloudy
8:54 PM 72.0 °F - 68.0 °F 87% 30.14 in 10.0 mi NE 18.4 mph - 0.00 in Rain Light Rain
9:54 PM 73.0 °F - 66.9 °F 81% 30.14 in 10.0 mi ENE 12.7 mph 23.0 mph 0.00 in   Partly Cloudy
10:54 PM 73.0 °F - 68.0 °F 84% 30.14 in 10.0 mi NE 21.9 mph 32.2 mph 0.00 in   Partly Cloudy
11:54 PM 73.0 °F - 66.0 °F 79% 30.14 in 10.0 mi ENE 19.6 mph 29.9 mph N/A   Scattered Clouds